Flag for Barbados Weather past 2 weeks in Bridgetown, Barbados

Now
82 °F

Partly sunny.


Feels Like: 88 °F
Forecast: 80 / 85 °F
Wind: 24 mph from East

Location: Grantley Adams

Current Time: May 29, 2015 at 4:01:31 PM

Latest Report: May 29, 2015 at 3:00 PM


Visibility: N/A

Pressure: 29.92 "Hg

Humidity: 74%

Dew point: 73 °F

Location of BridgetownLocation

Historic Weather in Bridgetown — Graph

°F

Bridgetown temperature yesterday

Maximum temperature yesterday: 84 °F (at 10:00 AM)
Minimum temperature yesterday: 77 °F (at 12:00 AM)
Average temperature yesterday: 81 °F

Past Weeks' High & Low Weather Summary

 TemperatureHumidityPressure
High88 °F (May 15, 1:00 PM)94% (May 16, 9:00 PM)30.07 "Hg (May 16, 9:00 PM)
Low75 °F (May 16, 9:00 PM)55% (May 15, 1:00 PM)29.89 "Hg (May 28, 3:00 AM)
Average82 °F75%29.98 "Hg
* Reported May 14 3:00 PM — May 29 3:00 PM, Bridgetown, Weather by CustomWeather, © 2015

Note: Actual official high and low records may vary slightly from our data, if they occured in-between our weather recording intervals... More about our weather records

Advertising

Bridgetown weather history for previous 24 hours

 ConditionsComfort  
Time TempWeatherWind HumidityBarometerVisibility
3:00 PM
Fri, May 29
82 °FPartly sunny.24 mph74%29.92 "HgN/A
2:00 PM84 °FPartly sunny.24 mph70%29.92 "HgN/A
1:00 PM84 °FScattered showers. Broken clouds.24 mph79%29.95 "HgN/A
12:00 PM84 °FBroken clouds.22 mph79%29.95 "HgN/A
11:00 AM84 °FPartly sunny.25 mph74%29.95 "HgN/A
10:00 AM84 °FBroken clouds.24 mph74%29.98 "HgN/A
9:00 AM84 °FBroken clouds.25 mph74%29.95 "HgN/A
8:00 AM82 °FBroken clouds.23 mph79%29.95 "HgN/A
7:00 AM81 °FPartly sunny.24 mph84%29.92 "HgN/A
6:00 AM81 °FScattered showers. Broken clouds.31 mph79%29.92 "HgN/A
5:00 AM79 °FPartly cloudy.23 mph89%29.92 "HgN/A
4:00 AM81 °FPartly cloudy.22 mph84%29.92 "HgN/A
3:00 AM81 °FSprinkles. Partly cloudy.22 mph84%29.92 "HgN/A
2:00 AM81 °FPartly cloudy.20 mph84%29.92 "HgN/A
1:00 AM81 °FPartly cloudy.20 mph84%29.95 "HgN/A
12:00 AM81 °FPassing clouds.21 mph84%29.98 "HgN/A
11:00 PM
Thu, May 28
81 °FLight rain. Passing clouds.18 mph84%29.98 "HgN/A
10:00 PM81 °FSprinkles. Passing clouds.22 mph84%29.98 "HgN/A
9:00 PM81 °FPassing clouds.20 mph84%29.95 "HgN/A
8:00 PM81 °FPartly cloudy.20 mph79%29.95 "HgN/A
7:00 PM81 °FPassing clouds.22 mph84%29.95 "HgN/A
6:00 PM81 °FPartly sunny.20 mph84%29.92 "HgN/A
5:00 PM81 °FBroken clouds.21 mph89%29.89 "HgN/A
4:00 PM82 °FBroken clouds.22 mph84%29.92 "HgN/A
Weather by CustomWeather, © 2015

See weather overviewHow to use our weather pages